| time (UTC) | temp F | wind direction | speed MPH | gust MPH | rain 1hr in | rain 24hr in | rain mn in | humidity % | barometer mb |
| 20260903130218 | 66 | 257 | 3.0 | 12.0 | 0.00 | 0.00 | 0.00 | 53 | 1004.9 |
| 20260903125716 | 66 | 296 | 5.0 | 12.0 | 0.00 | 0.00 | 0.00 | 53 | 1004.9 |
| 20260903125216 | 67 | 278 | 6.0 | 10.0 | 0.00 | 0.00 | 0.00 | 51 | 1004.9 |
| 20260903124716 | 67 | 243 | 4.0 | 13.0 | 0.00 | 0.00 | 0.00 | 53 | 1004.9 |
| 20260903124216 | 66 | 290 | 7.0 | 13.0 | 0.00 | 0.00 | 0.00 | 53 | 1004.9 |
| 20260903123716 | 66 | 281 | 4.0 | 11.0 | 0.00 | 0.00 | 0.00 | 54 | 1004.9 |
| 20260903123216 | 66 | 303 | 5.0 | 12.0 | 0.00 | 0.00 | 0.00 | 53 | 1005.0 |
| 20260903122715 | 66 | 265 | 7.0 | 12.0 | 0.00 | 0.00 | 0.00 | 53 | 1005.0 |
| 20260903122216 | 66 | 305 | 6.0 | 12.0 | 0.00 | 0.00 | 0.00 | 55 | 1005.0 |
| 20260903121715 | 65 | 255 | 6.0 | 16.0 | 0.00 | 0.00 | 0.00 | 54 | 1005.1 |
| 20260903121215 | 66 | 279 | 9.0 | 16.0 | 0.00 | 0.00 | 0.00 | 54 | 1005.2 |
| 20260903121201 | 65 | 295 | 5.0 | 12.0 | 0.00 | 0.00 | 0.00 | 56 | 1005.1 |
| 20260903120215 | 65 | 309 | 7.0 | 12.0 | 0.00 | 0.00 | 0.00 | 55 | 1005.2 |
| 20260903115715 | 65 | 295 | 5.0 | 14.0 | 0.00 | 0.00 | 0.00 | 55 | 1005.2 |
| 20260903115215 | 65 | 286 | 9.0 | 14.0 | 0.00 | 0.00 | 0.00 | 55 | 1005.3 |
| 20260903114715 | 65 | 319 | 6.0 | 13.0 | 0.00 | 0.00 | 0.00 | 56 | 1005.2 |
| 20260903114214 | 65 | 144 | 6.0 | 12.0 | 0.00 | 0.00 | 0.00 | 56 | 1005.1 |
| 20260903113715 | 65 | 306 | 6.0 | 12.0 | 0.00 | 0.00 | 0.00 | 57 | 1005.2 |
| 20260903113214 | 64 | 272 | 5.0 | 11.0 | 0.00 | 0.00 | 0.00 | 58 | 1005.2 |
| 20260903112714 | 64 | 309 | 6.0 | 12.0 | 0.00 | 0.00 | 0.00 | 57 | 1005.2 |
| 20260903112214 | 64 | 274 | 6.0 | 13.0 | 0.00 | 0.00 | 0.00 | 57 | 1005.2 |
| 20260903111714 | 64 | 288 | 7.0 | 13.0 | 0.00 | 0.00 | 0.00 | 57 | 1005.3 |
| 20260903111214 | 64 | 285 | 6.0 | 12.0 | 0.00 | 0.00 | 0.00 | 59 | 1005.5 |
| 20260903110713 | 64 | 281 | 6.0 | 10.0 | 0.00 | 0.00 | 0.00 | 58 | 1005.4 |
| 20260903110213 | 63 | 303 | 6.0 | 16.0 | 0.00 | 0.00 | 0.00 | 57 | 1005.5 |
| 20260903105714 | 63 | 237 | 6.0 | 16.0 | 0.00 | 0.00 | 0.00 | 58 | 1005.5 |
| 20260903105214 | 63 | 286 | 7.0 | 14.0 | 0.00 | 0.00 | 0.00 | 58 | 1005.5 |
| 20260903104713 | 63 | 275 | 8.0 | 16.0 | 0.00 | 0.00 | 0.00 | 59 | 1005.6 |
| 20260903104213 | 63 | 278 | 11.0 | 16.0 | 0.00 | 0.00 | 0.00 | 58 | 1005.6 |
| 20260903103713 | 63 | 271 | 5.0 | 14.0 | 0.00 | 0.00 | 0.00 | 59 | 1005.6 |
| 20260903103213 | 63 | 240 | 9.0 | 14.0 | 0.00 | 0.00 | 0.00 | 59 | 1005.7 |
| 20260903102713 | 63 | 241 | 4.0 | 13.0 | 0.00 | 0.00 | 0.00 | 59 | 1005.7 |
| 20260903102213 | 63 | 283 | 4.0 | 12.0 | 0.00 | 0.00 | 0.00 | 61 | 1005.7 |
| 20260903101713 | 62 | 278 | 4.0 | 13.0 | 0.00 | 0.00 | 0.00 | 62 | 1005.7 |
| 20260903101438 | 62 | 255 | 7.0 | 13.0 | 0.00 | 0.00 | 0.00 | 61 | 1005.7 |
| 20260903100936 | 62 | 323 | 7.0 | 14.0 | 0.00 | 0.00 | 0.00 | 63 | 1005.7 |
| 20260903100213 | 62 | 320 | 7.0 | 14.0 | 0.00 | 0.00 | 0.00 | 62 | 1005.6 |
| 20260903095712 | 62 | 275 | 5.0 | 9.0 | 0.00 | 0.00 | 0.00 | 61 | 1005.6 |
| 20260903095657 | 62 | 188 | 4.0 | 10.0 | 0.00 | 0.00 | 0.00 | 63 | 1005.7 |
| 20260903094712 | 62 | 258 | 4.0 | 11.0 | 0.00 | 0.00 | 0.00 | 63 | 1005.7 |
| 20260903094212 | 61 | 251 | 7.0 | 14.0 | 0.00 | 0.00 | 0.00 | 62 | 1005.7 |
| 20260903093712 | 61 | 234 | 8.0 | 14.0 | 0.00 | 0.00 | 0.00 | 63 | 1005.6 |
| 20260903093212 | 61 | 275 | 6.0 | 12.0 | 0.00 | 0.00 | 0.00 | 62 | 1005.7 |
| 20260903092712 | 61 | 282 | 4.0 | 12.0 | 0.00 | 0.00 | 0.00 | 63 | 1005.7 |
| 20260903092211 | 61 | 269 | 6.0 | 13.0 | 0.00 | 0.00 | 0.00 | 61 | 1005.7 |
| 20260903091711 | 61 | 299 | 6.0 | 13.0 | 0.00 | 0.00 | 0.00 | 63 | 1005.9 |
| 20260903091211 | 61 | 278 | 2.0 | 13.0 | 0.00 | 0.00 | 0.00 | 65 | 1005.8 |
| 20260903090934 | 60 | 298 | 7.0 | 13.0 | 0.00 | 0.00 | 0.00 | 62 | 1005.9 |
| 20260903090211 | 60 | 269 | 5.0 | 15.0 | 0.00 | 0.00 | 0.00 | 63 | 1005.9 |
| 20260903085711 | 60 | 289 | 8.0 | 15.0 | 0.00 | 0.00 | 0.00 | 62 | 1005.9 |
| 20260903085211 | 60 | 289 | 5.0 | 9.0 | 0.00 | 0.00 | 0.00 | 64 | 1005.8 |
| 20260903084710 | 60 | 247 | 5.0 | 10.0 | 0.00 | 0.00 | 0.00 | 65 | 1005.9 |
| 20260903084211 | 60 | 296 | 4.0 | 13.0 | 0.00 | 0.00 | 0.00 | 66 | 1006.0 |
| 20260903083710 | 60 | 298 | 7.0 | 13.0 | 0.00 | 0.00 | 0.00 | 67 | 1005.9 |
| 20260903083211 | 60 | 274 | 6.0 | 13.0 | 0.00 | 0.00 | 0.00 | 67 | 1005.9 |
| 20260903082710 | 59 | 286 | 7.0 | 14.0 | 0.00 | 0.00 | 0.00 | 67 | 1005.9 |
| 20260903082436 | 59 | 276 | 6.0 | 14.0 | 0.00 | 0.00 | 0.00 | 67 | 1006.0 |
| 20260903081710 | 59 | 309 | 8.0 | 16.0 | 0.00 | 0.00 | 0.00 | 67 | 1005.9 |
| 20260903081210 | 59 | 243 | 9.0 | 16.0 | 0.00 | 0.00 | 0.00 | 67 | 1005.8 |
| 20260903080710 | 59 | 241 | 6.0 | 11.0 | 0.00 | 0.00 | 0.00 | 69 | 1005.9 |
| 20260903080438 | 59 | 283 | 8.0 | 11.0 | 0.00 | 0.00 | 0.00 | 69 | 1005.8 |
| 20260903075710 | 59 | 254 | 6.0 | 14.0 | 0.00 | 0.00 | 0.00 | 70 | 1005.9 |
| 20260903075210 | 58 | 288 | 7.0 | 15.0 | 0.00 | 0.00 | 0.00 | 70 | 1005.9 |
| 20260903074935 | 58 | 334 | 8.0 | 15.0 | 0.00 | 0.00 | 0.00 | 71 | 1005.9 |
| 20260903074209 | 58 | 303 | 9.0 | 15.0 | 0.00 | 0.00 | 0.00 | 71 | 1005.9 |
| 20260903073709 | 58 | 282 | 7.0 | 19.0 | 0.00 | 0.00 | 0.00 | 72 | 1006.0 |
| 20260903073210 | 58 | 300 | 11.0 | 19.0 | 0.00 | 0.00 | 0.00 | 71 | 1006.0 |
| 20260903072709 | 58 | 290 | 10.0 | 19.0 | 0.00 | 0.00 | 0.00 | 72 | 1005.9 |
| 20260903072209 | 58 | 351 | 9.0 | 16.0 | 0.00 | 0.00 | 0.00 | 74 | 1005.9 |
| 20260903071939 | 58 | 288 | 9.0 | 16.0 | 0.00 | 0.00 | 0.00 | 74 | 1005.9 |
| 20260903071209 | 58 | 310 | 9.0 | 19.0 | 0.00 | 0.00 | 0.00 | 75 | 1005.8 |
| 20260903070708 | 58 | 238 | 7.0 | 19.0 | 0.00 | 0.00 | 0.00 | 75 | 1005.9 |
| 20260903070430 | 58 | 286 | 8.0 | 16.0 | 0.00 | 0.00 | 0.00 | 76 | 1006.0 |
| 20260903065708 | 57 | 240 | 7.0 | 16.0 | 0.00 | 0.00 | 0.00 | 76 | 1006.0 |
| 20260903065207 | 57 | 302 | 8.0 | 18.0 | 0.00 | 0.00 | 0.00 | 77 | 1006.0 |
| 20260903064707 | 57 | 268 | 11.0 | 18.0 | 0.00 | 0.00 | 0.00 | 79 | 1006.1 |
| 20260903064207 | 56 | 305 | 9.0 | 16.0 | 0.00 | 0.00 | 0.00 | 79 | 1006.1 |
| 20260903063707 | 56 | 271 | 8.0 | 16.0 | 0.00 | 0.00 | 0.00 | 79 | 1006.1 |
| 20260903063207 | 56 | 285 | 5.0 | 14.0 | 0.00 | 0.00 | 0.00 | 81 | 1006.0 |
| 20260903062707 | 56 | 293 | 7.0 | 14.0 | 0.00 | 0.00 | 0.00 | 81 | 1006.0 |
| 20260903062647 | 56 | 289 | 6.0 | 14.0 | 0.00 | 0.00 | 0.00 | 82 | 1006.0 |
| 20260903061706 | 56 | 254 | 9.0 | 14.0 | 0.00 | 0.00 | 0.00 | 82 | 1006.0 |
| 20260903061426 | 55 | 292 | 5.0 | 10.0 | 0.00 | 0.00 | 0.00 | 82 | 1006.1 |
| 20260903060707 | 55 | 292 | 5.0 | 11.0 | 0.00 | 0.00 | 0.00 | 83 | 1006.1 |
| 20260903060206 | 55 | 266 | 5.0 | 11.0 | 0.00 | 0.00 | 0.00 | 83 | 1006.1 |
| 20260903055706 | 55 | 306 | 7.0 | 12.0 | 0.00 | 0.00 | 0.00 | 83 | 1006.1 |
| 20260903055207 | 55 | 278 | 4.0 | 12.0 | 0.00 | 0.00 | 0.00 | 84 | 1006.1 |
| 20260903054706 | 54 | 275 | 7.0 | 12.0 | 0.00 | 0.00 | 0.00 | 84 | 1006.0 |
| 20260903054206 | 54 | 303 | 7.0 | 10.0 | 0.00 | 0.00 | 0.00 | 84 | 1006.1 |
| 20260903053705 | 54 | 276 | 5.0 | 11.0 | 0.00 | 0.00 | 0.00 | 85 | 1006.0 |
| 20260903053205 | 54 | 299 | 6.0 | 11.0 | 0.00 | 0.00 | 0.00 | 86 | 1006.1 |
| 20260903052705 | 53 | 279 | 3.0 | 7.0 | 0.00 | 0.00 | 0.00 | 87 | 1006.1 |
| 20260903052205 | 53 | 265 | 1.0 | 7.0 | 0.00 | 0.00 | 0.00 | 87 | 1006.1 |
| 20260903051705 | 53 | 266 | 2.0 | 6.0 | 0.00 | 0.00 | 0.00 | 88 | 1006.1 |
| 20260903051204 | 52 | 296 | 3.0 | 6.0 | 0.00 | 0.00 | 0.00 | 88 | 1006.2 |
| 20260903050705 | 52 | 283 | 2.0 | 5.0 | 0.00 | 0.00 | 0.00 | 89 | 1006.1 |
| 20260903050205 | 51 | 266 | 2.0 | 5.0 | 0.00 | 0.00 | 0.00 | 90 | 1006.1 |
| 20260903045706 | 51 | 258 | 2.0 | 5.0 | 0.00 | 0.00 | 0.00 | 90 | 1006.1 |
| 20260903045205 | 51 | 247 | 2.0 | 3.0 | 0.00 | 0.00 | 0.00 | 90 | 1006.1 |
| 20260903044706 | 51 | 283 | 2.0 | 3.0 | 0.00 | 0.00 | 0.00 | 90 | 1006.1 |
| 20260903044206 | 51 | 283 | 1.0 | 3.0 | 0.00 | 0.00 | 0.00 | 90 | 1006.1 |
| 20260903043926 | 50 | 261 | 0.0 | 4.0 | 0.00 | 0.00 | 0.00 | 90 | 1006.2 |
| 20260903043205 | 50 | 303 | 2.0 | 4.0 | 0.00 | 0.00 | 0.00 | 90 | 1006.1 |
| 20260903042706 | 50 | 226 | 0.0 | 2.0 | 0.00 | 0.00 | 0.00 | 90 | 1006.3 |
| 20260903042206 | 50 | 210 | 0.0 | 2.0 | 0.00 | 0.00 | 0.00 | 90 | 1006.3 |
| 20260903041705 | 50 | 250 | 0.0 | 1.0 | 0.00 | 0.00 | 0.00 | 90 | 1006.3 |
| 20260903041205 | 50 | 250 | 0.0 | 3.0 | 0.00 | 0.00 | 0.00 | 90 | 1006.3 |
| 20260903040705 | 50 | 252 | 0.0 | 4.0 | 0.00 | 0.00 | 0.00 | 89 | 1006.4 |
| 20260903040205 | 50 | 243 | 1.0 | 4.0 | 0.00 | 0.00 | 0.00 | 89 | 1006.4 |
| 20260903035704 | 50 | 259 | 1.0 | 3.0 | 0.00 | 0.00 | 0.00 | 89 | 1006.4 |
| 20260903035205 | 50 | 282 | 0.0 | 1.0 | 0.00 | 0.00 | 0.00 | 89 | 1006.4 |
| 20260903034705 | 50 | 282 | 1.0 | 1.0 | 0.00 | 0.00 | 0.00 | 88 | 1006.5 |
| 20260903034204 | 50 | 282 | 0.0 | 1.0 | 0.00 | 0.00 | 0.00 | 88 | 1006.5 |
| 20260903033706 | 50 | 282 | 0.0 | 1.0 | 0.00 | 0.00 | 0.00 | 87 | 1006.5 |
| 20260903033428 | 51 | 282 | 0.0 | 1.0 | 0.00 | 0.00 | 0.00 | 87 | 1006.5 |
| 20260903032705 | 51 | 282 | 0.0 | 1.0 | 0.00 | 0.00 | 0.00 | 87 | 1006.5 |
| 20260903032203 | 51 | 282 | 0.0 | 1.0 | 0.00 | 0.00 | 0.00 | 86 | 1006.5 |
| 20260903031920 | 51 | 282 | 0.0 | 2.0 | 0.00 | 0.00 | 0.00 | 87 | 1006.4 |
| 20260903031411 | 51 | 282 | 0.0 | 2.0 | 0.00 | 0.00 | 0.00 | 87 | 1006.5 |
| 20260903030203 | 51 | 282 | 0.0 | 1.0 | 0.00 | 0.00 | 0.00 | 86 | 1006.5 |
| 20260903025925 | 51 | 282 | 0.0 | 0.0 | 0.00 | 0.00 | 0.00 | 86 | 1006.6 |
| 20260903025204 | 51 | 282 | 0.0 | 2.0 | 0.00 | 0.00 | 0.00 | 86 | 1006.6 |
| 20260903024704 | 51 | 282 | 0.0 | 3.0 | 0.00 | 0.00 | 0.00 | 86 | 1006.6 |
| 20260903024204 | 51 | 251 | 1.0 | 3.0 | 0.00 | 0.00 | 0.00 | 86 | 1006.7 |
| 20260903023705 | 51 | 235 | 1.0 | 2.0 | 0.00 | 0.00 | 0.00 | 86 | 1006.6 |
| 20260903023205 | 51 | 235 | 0.0 | 0.0 | 0.00 | 0.00 | 0.00 | 86 | 1006.6 |
| 20260903022701 | 51 | 235 | 0.0 | 0.0 | 0.00 | 0.00 | 0.00 | 85 | 1006.6 |
| 20260903022201 | 52 | 235 | 0.0 | 1.0 | 0.00 | 0.00 | 0.00 | 84 | 1006.6 |
| 20260903021702 | 52 | 235 | 0.0 | 2.0 | 0.00 | 0.00 | 0.00 | 84 | 1006.6 |
| 20260903021204 | 52 | 235 | 0.0 | 2.0 | 0.00 | 0.00 | 0.00 | 84 | 1006.7 |
| 20260903020703 | 52 | 266 | 0.0 | 2.0 | 0.00 | 0.00 | 0.00 | 84 | 1006.7 |
| 20260903020202 | 52 | 266 | 1.0 | 1.0 | 0.00 | 0.00 | 0.00 | 84 | 1006.7 |
| 20260903015703 | 52 | 266 | 0.0 | 2.0 | 0.00 | 0.00 | 0.00 | 83 | 1006.7 |
| 20260903015202 | 53 | 276 | 1.0 | 2.0 | 0.00 | 0.00 | 0.00 | 83 | 1006.9 |
| 20260903014702 | 53 | 278 | 1.0 | 3.0 | 0.00 | 0.00 | 0.00 | 83 | 1006.8 |
| 20260903014202 | 53 | 281 | 2.0 | 4.0 | 0.00 | 0.00 | 0.00 | 83 | 1006.9 |
| 20260903013702 | 53 | 274 | 2.0 | 4.0 | 0.00 | 0.00 | 0.00 | 83 | 1006.9 |
| 20260903013202 | 53 | 289 | 1.0 | 4.0 | 0.00 | 0.00 | 0.00 | 82 | 1006.9 |
| 20260903012923 | 53 | 272 | 2.0 | 5.0 | 0.00 | 0.00 | 0.00 | 82 | 1006.9 |
| 20260903012420 | 53 | 288 | 1.0 | 5.0 | 0.00 | 0.00 | 0.00 | 82 | 1007.0 |
| 20260903011701 | 53 | 279 | 2.0 | 4.0 | 0.00 | 0.00 | 0.00 | 82 | 1007.0 |
| 20260903011201 | 53 | 245 | 1.0 | 3.0 | 0.00 | 0.00 | 0.00 | 81 | 1007.0 |
| 20260903010920 | 53 | 276 | 0.0 | 3.0 | 0.00 | 0.00 | 0.00 | 81 | 1007.0 |
| 20260903010202 | 53 | 250 | 0.0 | 4.0 | 0.00 | 0.00 | 0.00 | 80 | 1007.0 |
| 20260903005701 | 53 | 231 | 1.0 | 6.0 | 0.00 | 0.00 | 0.00 | 80 | 1007.1 |
| 20260903005201 | 53 | 230 | 2.0 | 6.0 | 0.00 | 0.00 | 0.00 | 80 | 1007.1 |
| 20260903004701 | 53 | 241 | 1.0 | 3.0 | 0.00 | 0.00 | 0.00 | 79 | 1007.2 |
| 20260903004200 | 54 | 275 | 2.0 | 3.0 | 0.00 | 0.00 | 0.00 | 79 | 1007.2 |
| 20260903003701 | 54 | 288 | 2.0 | 3.0 | 0.00 | 0.00 | 0.00 | 79 | 1007.2 |
| 20260903003200 | 54 | 247 | 2.0 | 4.0 | 0.00 | 0.00 | 0.00 | 79 | 1007.2 |
| 20260903002700 | 54 | 264 | 2.0 | 4.0 | 0.00 | 0.00 | 0.00 | 79 | 1007.2 |
| 20260903002200 | 54 | 257 | 2.0 | 4.0 | 0.00 | 0.00 | 0.00 | 78 | 1007.2 |
| 20260903001700 | 54 | 271 | 2.0 | 5.0 | 0.00 | 0.00 | 0.00 | 78 | 1007.3 |
| 20260903001200 | 55 | 252 | 2.0 | 5.0 | 0.00 | 0.00 | 0.00 | 77 | 1007.3 |
| 20260903000700 | 55 | 272 | 1.0 | 3.0 | 0.00 | 0.00 | 0.00 | 77 | 1007.3 |
| 20260903000200 | 55 | 274 | 1.0 | 3.0 | 0.00 | 0.00 | 0.00 | 76 | 1007.3 |
| 20260902235659 | 55 | 264 | 1.0 | 7.0 | 0.00 | 0.00 | 0.00 | 76 | 1007.3 |
| 20260902235421 | 55 | 251 | 3.0 | 7.0 | 0.00 | 0.00 | 0.00 | 76 | 1007.4 |
| 20260902234700 | 56 | 276 | 1.0 | 5.0 | 0.00 | 0.00 | 0.00 | 76 | 1007.3 |
| 20260902234200 | 56 | 278 | 2.0 | 4.0 | 0.00 | 0.00 | 0.00 | 76 | 1007.3 |
| 20260902233659 | 56 | 227 | 2.0 | 5.0 | 0.00 | 0.00 | 0.00 | 75 | 1007.3 |
| 20260902233159 | 56 | 264 | 2.0 | 6.0 | 0.00 | 0.00 | 0.00 | 75 | 1007.4 |
| 20260902232659 | 56 | 257 | 3.0 | 6.0 | 0.00 | 0.00 | 0.00 | 76 | 1007.3 |
| 20260902232159 | 56 | 251 | 3.0 | 5.0 | 0.00 | 0.00 | 0.00 | 76 | 1007.3 |
| 20260902231659 | 56 | 286 | 2.0 | 6.0 | 0.00 | 0.00 | 0.00 | 75 | 1007.3 |
| 20260902231159 | 56 | 252 | 3.0 | 6.0 | 0.00 | 0.00 | 0.00 | 75 | 1007.3 |
| 20260902230658 | 56 | 275 | 2.0 | 5.0 | 0.00 | 0.00 | 0.00 | 75 | 1007.3 |
| 20260902230159 | 56 | 224 | 2.0 | 5.0 | 0.00 | 0.00 | 0.00 | 76 | 1007.3 |
| 20260902225920 | 56 | 245 | 2.0 | 5.0 | 0.00 | 0.00 | 0.00 | 75 | 1007.3 |
| 20260902225158 | 56 | 285 | 2.0 | 3.0 | 0.00 | 0.00 | 0.00 | 75 | 1007.4 |
| 20260902224918 | 56 | 269 | 0.0 | 6.0 | 0.00 | 0.00 | 0.00 | 74 | 1007.3 |
| 20260902224419 | 56 | 259 | 3.0 | 9.0 | 0.00 | 0.00 | 0.00 | 74 | 1007.3 |
| 20260902223657 | 57 | 262 | 2.0 | 9.0 | 0.00 | 0.00 | 0.00 | 74 | 1007.3 |
| 20260902223158 | 56 | 266 | 3.0 | 11.0 | 0.00 | 0.00 | 0.00 | 74 | 1007.3 |
| 20260902222659 | 57 | 265 | 2.0 | 11.0 | 0.00 | 0.00 | 0.00 | 73 | 1007.3 |
| 20260902222158 | 56 | 258 | 2.0 | 9.0 | 0.00 | 0.00 | 0.00 | 73 | 1007.4 |
| 20260902221657 | 57 | 220 | 3.0 | 9.0 | 0.00 | 0.00 | 0.00 | 73 | 1007.4 |
| 20260902221427 | 57 | 258 | 4.0 | 7.0 | 0.00 | 0.00 | 0.00 | 72 | 1007.3 |
| 20260902220917 | 57 | 283 | 2.0 | 4.0 | 0.00 | 0.00 | 0.00 | 72 | 1007.4 |
| 20260902220157 | 57 | 295 | 2.0 | 5.0 | 0.00 | 0.00 | 0.00 | 72 | 1007.4 |
| 20260902215657 | 57 | 283 | 1.0 | 5.0 | 0.00 | 0.00 | 0.00 | 71 | 1007.4 |
| 20260902215157 | 57 | 275 | 1.0 | 9.0 | 0.00 | 0.00 | 0.00 | 71 | 1007.4 |
| 20260902214658 | 57 | 259 | 2.0 | 9.0 | 0.00 | 0.00 | 0.00 | 72 | 1007.4 |
| 20260902214413 | 57 | 272 | 3.0 | 6.0 | 0.00 | 0.00 | 0.00 | 72 | 1007.4 |
| 20260902213657 | 57 | 295 | 2.0 | 7.0 | 0.00 | 0.00 | 0.00 | 72 | 1007.5 |
| 20260902213156 | 57 | 288 | 4.0 | 9.0 | 0.00 | 0.00 | 0.00 | 72 | 1007.4 |
| 20260902212656 | 57 | 292 | 4.0 | 9.0 | 0.00 | 0.00 | 0.00 | 72 | 1007.5 |
| 20260902212156 | 56 | 290 | 3.0 | 7.0 | 0.00 | 0.00 | 0.00 | 73 | 1007.5 |
| 20260902211924 | 55 | 316 | 2.0 | 5.0 | 0.00 | 0.00 | 0.00 | 74 | 1007.5 |
| 20260902211158 | 55 | 259 | 2.0 | 4.0 | 0.00 | 0.00 | 0.00 | 74 | 1007.4 |
| 20260902210658 | 55 | 266 | 2.0 | 4.0 | 0.00 | 0.00 | 0.00 | 74 | 1007.5 |
| 20260902210156 | 55 | 303 | 1.0 | 3.0 | 0.00 | 0.00 | 0.00 | 74 | 1007.5 |
| 20260902205656 | 55 | 264 | 1.0 | 2.0 | 0.00 | 0.00 | 0.00 | 74 | 1007.5 |
| 20260902205155 | 55 | 264 | 1.0 | 2.0 | 0.00 | 0.00 | 0.00 | 74 | 1007.4 |
| 20260902204655 | 56 | 278 | 0.0 | 1.0 | 0.00 | 0.00 | 0.00 | 75 | 1007.4 |
| 20260902204155 | 56 | 278 | 0.0 | 1.0 | 0.00 | 0.00 | 0.00 | 76 | 1007.4 |
| 20260902203916 | 56 | 278 | 0.0 | 1.0 | 0.00 | 0.00 | 0.00 | 76 | 1007.4 |
| 20260902203416 | 56 | 278 | 0.0 | 2.0 | 0.00 | 0.00 | 0.00 | 74 | 1007.5 |
| 20260902202655 | 56 | 278 | 0.0 | 2.0 | 0.00 | 0.00 | 0.00 | 72 | 1007.4 |
| 20260902202414 | 56 | 278 | 0.0 | 0.0 | 0.00 | 0.00 | 0.00 | 72 | 1007.4 |
| 20260902201655 | 56 | 278 | 0.0 | 0.0 | 0.00 | 0.00 | 0.00 | 71 | 1007.4 |
| 20260902201155 | 56 | 278 | 0.0 | 0.0 | 0.00 | 0.00 | 0.00 | 71 | 1007.4 |
| 20260902200655 | 56 | 278 | 0.0 | 0.0 | 0.00 | 0.00 | 0.00 | 70 | 1007.5 |
| 20260902200154 | 57 | 278 | 0.0 | 1.0 | 0.00 | 0.00 | 0.00 | 69 | 1007.4 |
| 20260902195655 | 57 | 278 | 0.0 | 1.0 | 0.00 | 0.00 | 0.00 | 69 | 1007.5 |
| 20260902195154 | 58 | 278 | 0.0 | 0.0 | 0.00 | 0.00 | 0.00 | 67 | 1007.4 |
| 20260902194655 | 58 | 278 | 0.0 | 0.0 | 0.00 | 0.00 | 0.00 | 67 | 1007.4 |
| 20260902194154 | 58 | 278 | 0.0 | 0.0 | 0.00 | 0.00 | 0.00 | 66 | 1007.4 |
| 20260902193654 | 59 | 278 | 0.0 | 1.0 | 0.00 | 0.00 | 0.00 | 65 | 1007.4 |
| 20260902193154 | 59 | 278 | 0.0 | 3.0 | 0.00 | 0.00 | 0.00 | 65 | 1007.4 |
| 20260902192654 | 60 | 278 | 1.0 | 3.0 | 0.00 | 0.00 | 0.00 | 64 | 1007.4 |
| 20260902192154 | 60 | 281 | 1.0 | 2.0 | 0.00 | 0.00 | 0.00 | 64 | 1007.4 |
| 20260902191654 | 60 | 281 | 1.0 | 3.0 | 0.00 | 0.00 | 0.00 | 63 | 1007.4 |
| 20260902191153 | 60 | 274 | 2.0 | 3.0 | 0.00 | 0.00 | 0.00 | 63 | 1007.4 |
| 20260902191131 | 60 | 282 | 1.0 | 3.0 | 0.00 | 0.00 | 0.00 | 62 | 1007.4 |
| 20260902190416 | 61 | 254 | 2.0 | 3.0 | 0.00 | 0.00 | 0.00 | 62 | 1007.4 |
| 20260902185653 | 61 | 254 | 1.0 | 2.0 | 0.00 | 0.00 | 0.00 | 61 | 1007.4 |
| 20260902185640 | 61 | 254 | 1.0 | 4.0 | 0.00 | 0.00 | 0.00 | 61 | 1007.5 |
| 20260902184654 | 62 | 272 | 0.0 | 4.0 | 0.00 | 0.00 | 0.00 | 61 | 1007.4 |
| 20260902184153 | 62 | 296 | 2.0 | 4.0 | 0.00 | 0.00 | 0.00 | 60 | 1007.4 |
| 20260902183909 | 62 | 285 | 2.0 | 7.0 | 0.00 | 0.00 | 0.00 | 59 | 1007.4 |
| 20260902183152 | 62 | 300 | 4.0 | 7.0 | 0.00 | 0.00 | 0.00 | 58 | 1007.4 |
| 20260902182653 | 63 | 271 | 4.0 | 7.0 | 0.00 | 0.00 | 0.00 | 58 | 1007.3 |
| 20260902182152 | 63 | 268 | 3.0 | 6.0 | 0.00 | 0.00 | 0.00 | 58 | 1007.3 |
| 20260902181653 | 63 | 298 | 2.0 | 7.0 | 0.00 | 0.00 | 0.00 | 57 | 1007.3 |
| 20260902181153 | 63 | 288 | 4.0 | 10.0 | 0.00 | 0.00 | 0.00 | 57 | 1007.3 |
| 20260902180652 | 64 | 285 | 4.0 | 10.0 | 0.00 | 0.00 | 0.00 | 56 | 1007.2 |
| 20260902180418 | 64 | 302 | 3.0 | 10.0 | 0.00 | 0.00 | 0.00 | 57 | 1007.2 |
| 20260902175654 | 64 | 288 | 5.0 | 12.0 | 0.00 | 0.00 | 0.00 | 56 | 1007.2 |
| 20260902175152 | 64 | 262 | 6.0 | 12.0 | 0.00 | 0.00 | 0.00 | 56 | 1007.2 |
| 20260902174652 | 65 | 296 | 3.0 | 10.0 | 0.00 | 0.00 | 0.00 | 57 | 1007.1 |
| 20260902174152 | 65 | 275 | 4.0 | 7.0 | 0.00 | 0.00 | 0.00 | 57 | 1007.1 |
| 20260902173652 | 65 | 310 | 3.0 | 7.0 | 0.00 | 0.00 | 0.00 | 57 | 1006.9 |
| 20260902173153 | 65 | 292 | 3.0 | 7.0 | 0.00 | 0.00 | 0.00 | 56 | 1006.9 |
| 20260902172652 | 66 | 245 | 4.0 | 7.0 | 0.00 | 0.00 | 0.00 | 55 | 1006.8 |
| 20260902172152 | 66 | 264 | 4.0 | 9.0 | 0.00 | 0.00 | 0.00 | 55 | 1006.8 |
| 20260902171652 | 67 | 279 | 4.0 | 11.0 | 0.00 | 0.00 | 0.00 | 54 | 1006.8 |
| 20260902171152 | 67 | 251 | 3.0 | 12.0 | 0.00 | 0.00 | 0.00 | 54 | 1006.7 |
| 20260902170651 | 67 | 298 | 6.0 | 14.0 | 0.00 | 0.00 | 0.00 | 54 | 1006.7 |
| 20260902170151 | 67 | 266 | 5.0 | 14.0 | 0.00 | 0.00 | 0.00 | 55 | 1006.7 |
| 20260902165911 | 68 | 258 | 5.0 | 10.0 | 0.00 | 0.00 | 0.00 | 56 | 1006.6 |
| 20260902165151 | 68 | 299 | 3.0 | 10.0 | 0.00 | 0.00 | 0.00 | 57 | 1006.6 |
| 20260902164912 | 68 | 310 | 5.0 | 13.0 | 0.00 | 0.00 | 0.00 | 56 | 1006.6 |
| 20260902164151 | 68 | 281 | 6.0 | 13.0 | 0.00 | 0.00 | 0.00 | 56 | 1006.5 |
| 20260902163651 | 69 | 288 | 6.0 | 13.0 | 0.00 | 0.00 | 0.00 | 57 | 1006.4 |
| 20260902163150 | 69 | 283 | 4.0 | 10.0 | 0.00 | 0.00 | 0.00 | 62 | 1006.4 |
| 20260902162650 | 69 | 228 | 3.0 | 10.0 | 0.00 | 0.00 | 0.00 | 64 | 1006.4 |
| 20260902162150 | 69 | 261 | 2.0 | 7.0 | 0.00 | 0.00 | 0.00 | 64 | 1006.4 |
| 20260902161650 | 69 | 261 | 1.0 | 5.0 | 0.00 | 0.00 | 0.00 | 65 | 1006.4 |
| 20260902161632 | 69 | 226 | 2.0 | 6.0 | 0.00 | 0.00 | 0.00 | 66 | 1006.4 |
| 20260902160916 | 69 | 235 | 3.0 | 6.0 | 0.00 | 0.00 | 0.00 | 66 | 1006.4 |
| 20260902160150 | 68 | 247 | 2.0 | 9.0 | 0.00 | 0.00 | 0.00 | 67 | 1006.4 |
| 20260902155650 | 69 | 241 | 4.0 | 9.0 | 0.00 | 0.00 | 0.00 | 67 | 1006.4 |
| 20260902155149 | 69 | 231 | 3.0 | 10.0 | 0.00 | 0.00 | 0.00 | 67 | 1006.4 |
| 20260902154649 | 68 | 213 | 4.0 | 10.0 | 0.00 | 0.00 | 0.00 | 68 | 1006.4 |
| 20260902154149 | 68 | 258 | 3.0 | 7.0 | 0.00 | 0.00 | 0.00 | 68 | 1006.4 |
| 20260902154135 | 68 | 247 | 2.0 | 11.0 | 0.00 | 0.00 | 0.00 | 67 | 1006.4 |
| 20260902153149 | 68 | 252 | 2.0 | 11.0 | 0.00 | 0.00 | 0.00 | 67 | 1006.5 |
| 20260902152649 | 68 | 221 | 2.0 | 9.0 | 0.00 | 0.00 | 0.00 | 67 | 1006.5 |
| 20260902152149 | 69 | 250 | 3.0 | 9.0 | 0.00 | 0.00 | 0.00 | 67 | 1006.6 |
| 20260902151913 | 69 | 276 | 3.0 | 9.0 | 0.00 | 0.00 | 0.00 | 68 | 1006.6 |
| 20260902151148 | 69 | 299 | 2.0 | 9.0 | 0.00 | 0.00 | 0.00 | 68 | 1006.7 |
| 20260902150915 | 69 | 266 | 4.0 | 9.0 | 0.00 | 0.00 | 0.00 | 68 | 1006.8 |
| 20260902150149 | 69 | 231 | 4.0 | 9.0 | 0.00 | 0.00 | 0.00 | 68 | 1006.8 |
| 20260902145648 | 69 | 275 | 5.0 | 9.0 | 0.00 | 0.00 | 0.00 | 68 | 1006.8 |
| 20260902145151 | 69 | 251 | 4.0 | 7.0 | 0.00 | 0.00 | 0.00 | 69 | 1006.8 |
| 20260902144649 | 69 | 265 | 2.0 | 11.0 | 0.00 | 0.00 | 0.00 | 69 | 1006.8 |
| 20260902144149 | 69 | 285 | 7.0 | 11.0 | 0.00 | 0.00 | 0.00 | 68 | 1006.9 |
| 20260902143915 | 70 | 271 | 4.0 | 13.0 | 0.00 | 0.00 | 0.00 | 68 | 1006.9 |
| 20260902143409 | 70 | 188 | 5.0 | 18.0 | 0.00 | 0.00 | 0.00 | 67 | 1006.9 |
| 20260902142648 | 70 | 292 | 4.0 | 18.0 | 0.00 | 0.00 | 0.00 | 67 | 1006.9 |
| 20260902142148 | 69 | 221 | 3.0 | 9.0 | 0.00 | 0.00 | 0.00 | 68 | 1006.9 |
| 20260902141648 | 69 | 274 | 5.0 | 14.0 | 0.00 | 0.00 | 0.00 | 67 | 1006.9 |
| 20260902141148 | 69 | 257 | 4.0 | 14.0 | 0.00 | 0.00 | 0.00 | 67 | 1006.9 |
| 20260902140647 | 68 | 262 | 3.0 | 9.0 | 0.00 | 0.00 | 0.00 | 69 | 1007.1 |
| 20260902140147 | 68 | 206 | 2.0 | 9.0 | 0.00 | 0.00 | 0.00 | 69 | 1007.1 |
| 20260902135647 | 69 | 266 | 3.0 | 9.0 | 0.00 | 0.00 | 0.00 | 69 | 1007.1 |
| 20260902135147 | 68 | 271 | 3.0 | 9.0 | 0.00 | 0.00 | 0.00 | 70 | 1007.3 |
| 20260902134645 | 69 | 268 | 2.0 | 10.0 | 0.00 | 0.00 | 0.00 | 70 | 1007.3 |
| 20260902134417 | 69 | 275 | 3.0 | 10.0 | 0.00 | 0.00 | 0.00 | 68 | 1007.3 |
| 20260902133647 | 69 | 286 | 3.0 | 13.0 | 0.00 | 0.00 | 0.00 | 68 | 1007.3 |
| 20260902133146 | 69 | 230 | 6.0 | 13.0 | 0.00 | 0.00 | 0.00 | 68 | 1007.4 |
| 20260902132646 | 69 | 261 | 5.0 | 10.0 | 0.00 | 0.00 | 0.00 | 69 | 1007.3 |
| 20260902132147 | 68 | 250 | 2.0 | 10.0 | 0.00 | 0.00 | 0.00 | 70 | 1007.4 |
| 20260902131647 | 68 | 262 | 4.0 | 10.0 | 0.00 | 0.00 | 0.00 | 69 | 1007.4 |
| 20260902131146 | 68 | 243 | 3.0 | 15.0 | 0.00 | 0.00 | 0.00 | 70 | 1007.4 |